This demonstration page uses our WeatherBlox Daily Observations layout. Learn more.

Left ArrowRight Arrow

44.8408, -93.29828

Hourly Observations for July 10, 2017

Temp ( °F °C ) Dew Point ( °F °C ) Humidity (%) Winds ( mph kmh ) Pressure ( in mb ) Visibility ( mi km ) Precip ( " mm )
12:02 am 00:02 Cloudy with Strong Thunderstorms 71 21.7 66 18.9 84 84 SE 8 13 29.77 1008 5 8 0.07 1.78
12:18 am 00:18 Cloudy with Light Rain 70 21.1 66 18.9 87 87 SE 14 22 29.74 1007 10 16 0.10 2.54
12:44 am 00:44 Cloudy 70 21.1 66 18.9 87 87 SE 12 19 29.74 1007 10 16 0.10 2.54
12:53 am 00:53 Cloudy 70 21.1 66 18.9 87 87 SE 9 15 29.74 1007 10 16 0.10 2.54
1:03 am 01:03 Cloudy 69 20.6 66 18.9 90 90 ESE 12 19 29.71 1006 10 16 0.00 0.00
1:53 am 01:53 Cloudy 70 21.1 66 18.9 87 87 SE 8 13 29.71 1006 10 16 0.00 0.00
2:53 am 02:53 Cloudy 69 20.6 65 18.3 87 87 E 8 13 29.73 1007 10 16 0.00 0.00
3:35 am 03:35 Cloudy 69 20.6 66 18.9 90 90 ENE 7 11 29.71 1006 10 16 0.00 0.00
3:48 am 03:48 Cloudy 70 21 64 18 83 83 ENE 6 9 29.71 1006 10 16 0.00 0.00
3:53 am 03:53 Cloudy 69 20.6 65 18.3 87 87 ENE 7 11 29.72 1007 10 16 0.00 0.00
4:53 am 04:53 Cloudy 69 20.6 65 18.3 87 87 ENE 7 11 29.73 1007 10 16 0.00 0.00
5:53 am 05:53 Cloudy 69 20.6 65 18.3 87 87 ENE 6 9 29.75 1008 10 16 0.00 0.00
6:53 am 06:53 Cloudy 70 21.1 65 18.3 84 84 NE 8 13 29.76 1008 10 16 0.00 0.00
7:19 am 07:19 Cloudy 70 21.1 65 18.3 84 84 E 7 11 29.77 1008 10 16 0.00 0.00
7:53 am 07:53 Mostly Cloudy 70 21.1 65 18.3 84 84 ENE 8 13 29.79 1009 10 16 0.00 0.00
8:04 am 08:04 Mostly Cloudy 70 21.1 65 18.3 84 84 E 7 11 29.77 1008 10 16 0.00 0.00
8:26 am 08:26 Mostly Cloudy 71 21.7 64 17.8 79 79 ENE 8 13 29.77 1008 10 16 0.00 0.00
8:53 am 08:53 Cloudy 72 22.2 65 18.3 79 79 NNE 6 9 29.80 1009 10 16 0.00 0.00
9:44 am 09:44 Cloudy 73 22.8 65 18.3 76 76 NNE 8 13 29.80 1009 10 16 0.00 0.00
9:53 am 09:53 Cloudy 73 22.8 65 18.3 76 76 NE 8 13 29.81 1010 10 16 0.00 0.00
10:24 am 10:24 Cloudy 74 23.3 65 18.3 74 74 NNE 9 15 29.80 1009 10 16 0.00 0.00
10:53 am 10:53 Partly Cloudy 76 24.4 65 18.3 69 69 N 12 19 29.82 1010 10 16 0.00 0.00
11:53 am 11:53 Partly Cloudy 78 25.6 65 18.3 64 64 N 10 17 29.82 1010 10 16 0.00 0.00
12:34 pm 12:34 Mostly Cloudy 79 26.1 65 18.3 62 62 N 12 19 29.80 1009 10 16 0.00 0.00
12:53 pm 12:53 Mostly Cloudy 81 27.2 66 18.9 61 61 NNE 12 19 29.83 1010 10 16 0.00 0.00
1:01 pm 13:01 Mostly Cloudy 82 27.8 66 18.9 58 58 N 9 15 29.80 1009 10 16 0.00 0.00
1:53 pm 13:53 Mostly Cloudy 83 28.3 65 18.3 55 55 NNE 8 13 29.82 1010 10 16 0.00 0.00
2:53 pm 14:53 Mostly Cloudy 83 28.3 64 17.8 53 53 NNE 9 15 29.83 1010 10 16 0.00 0.00
3:53 pm 15:53 Mostly Cloudy 85 29.4 63 17.2 48 48 VRB 7 11 29.82 1010 10 16 0.00 0.00
4:53 pm 16:53 Mostly Cloudy 85 29.4 63 17.2 48 48 NNE 9 15 29.81 1010 10 16 0.00 0.00
5:53 pm 17:53 Mostly Cloudy 84 28.9 62 16.7 48 48 NNE 10 17 29.81 1010 10 16 0.00 0.00
6:53 pm 18:53 Mostly Cloudy 83 28.3 59 15 44 44 NNE 9 15 29.81 1010 10 16 0.00 0.00
7:53 pm 19:53 Mostly Cloudy 82 27.8 57 13.9 42 42 VRB 5 7 29.83 1010 10 16 0.00 0.00
8:53 pm 20:53 Mostly Cloudy 80 26.7 58 14.4 47 47 NNE 6 9 29.83 1010 10 16 0.00 0.00
9:53 pm 21:53 Partly Cloudy 79 26.1 59 15 50 50 Calm 29.85 1011 10 16 0.00 0.00
10:53 pm 22:53 Partly Cloudy 76 24.4 60 15.6 58 58 VRB 5 7 29.85 1011 10 16 0.00 0.00
11:53 pm 23:53 Partly Cloudy 74 23.3 60 15.6 62 62 Calm 29.86 1011 10 16 0.00 0.00

Powered by AerisWeather